DW9298 Weather Reports


time (UTC)temp
C
wind
direction
speed
KPH
gust
KPH
rain 1hr
cm
rain 24hr
cm
rain mn
cm
humidity
%
barometer
mb
20260505070040 7 166 6.4 12.9 0.00 0.18 0.00 84 1011.4
20260505064545 8 145 6.4 12.9 0.00 0.18 0.00 84 1011.4
20260505063043 8 173 3.2 14.5 0.00 0.18 0.00 84 1011.4
20260505061553 8 132 4.8 11.3 0.00 0.18 0.00 85 1011.6
20260505060044 8 128 4.8 12.9 0.05 0.18 0.00 84 1011.7
20260505054600 8 143 12.9 17.7 0.08 0.18 0.18 85 1011.4
20260505053100 9 148 9.7 14.5 0.08 0.18 0.18 87 1011.4
20260505051544 9 100 8.0 12.9 0.08 0.18 0.18 86 1011.5
20260505041554 10 217 8.0 16.1 0.00 0.08 0.08 83 1011.3
20260505040046 10 245 9.7 14.5 0.00 0.08 0.08 82 1011.1
20260505034542 10 248 9.7 12.9 0.00 0.08 0.08 81 1011.0
20260505033041 10 283 4.8 8.0 0.00 0.08 0.08 78 1010.9
20260505031559 10 302 3.2 12.9 0.00 0.08 0.08 76 1010.8
20260505030043 10 355 8.0 12.9 0.00 0.08 0.08 76 1010.5
20260505024543 10 352 8.0 14.5 0.00 0.08 0.08 75 1010.5
20260505023041 11 310 4.8 11.3 0.05 0.08 0.08 75 1010.5
20260505021538 11 270 3.2 6.4 0.08 0.08 0.08 71 1010.5
20260505020039 11 267 9.7 14.5 0.08 0.08 0.08 72 1010.7
20260505014544 12 301 3.2 8.0 0.05 0.05 0.05 61 1010.3
20260505013049 13 315 3.2 9.7 0.03 0.03 0.03 55 1010.5
20260505011542 14 59 4.8 16.1 0.00 0.00 0.00 51 1009.8
20260505010040 15 77 4.8 17.7 0.00 0.00 0.00 46 1009.3
20260505004552 15 336 8.0 25.7 0.00 0.00 0.00 45 1009.1
20260505003041 15 22 11.3 30.6 0.00 0.00 0.00 45 1009.0
20260505001543 16 332 12.9 25.7 0.00 0.00 0.00 36 1009.0
20260505000057 17 310 12.9 24.1 0.00 0.00 0.00 36 1009.0
20260504234540 17 0 3.2 14.5 0.00 0.00 0.00 34 1009.1
20260504233040 17 63 16.1 27.4 0.00 0.00 0.00 35 1009.0
20260504231546 17 39 19.3 32.2 0.00 0.00 0.00 34 1008.5
20260504230100 17 43 22.5 37.0 0.00 0.00 0.00 34 1007.9
20260504224542 17 50 24.1 37.0 0.00 0.00 0.00 33 1007.4
20260504223042 18 31 24.1 33.8 0.00 0.00 0.00 31 1007.9
20260504221557 18 348 12.9 22.5 0.00 0.00 0.00 31 1008.1
20260504220046 17 360 14.5 35.4 0.00 0.00 0.00 32 1008.6
20260504214536 18 313 17.7 40.2 0.00 0.00 0.00 31 1008.8
20260504213044 18 355 19.3 38.6 0.00 0.00 0.00 30 1008.3
20260504211545 19 344 24.1 37.0 0.00 0.00 0.00 26 1008.1
20260504210051 20 355 25.7 38.6 0.00 0.00 0.00 24 1007.6
20260504204541 20 13 30.6 51.5 0.00 0.00 0.00 24 1007.4
20260504203047 21 355 37.0 51.5 0.00 0.00 0.00 24 1007.2
20260504201543 23 307 20.9 53.1 0.00 0.00 0.00 20 1006.9
20260504200042 23 346 20.9 32.2 0.00 0.00 0.00 17 1007.1
20260504194540 22 269 16.1 27.4 0.00 0.00 0.00 18 1007.1
20260504193045 22 306 16.1 37.0 0.00 0.00 0.00 16 1007.1
20260504191543 22 315 17.7 37.0 0.00 0.00 0.00 16 1007.0
20260504190044 22 315 16.1 35.4 0.00 0.00 0.00 16 1007.0
20260504184540 22 318 22.5 35.4 0.00 0.00 0.00 16 1007.2
20260504183045 22 312 17.7 37.0 0.00 0.00 0.00 18 1007.3
20260504181548 22 290 20.9 38.6 0.00 0.00 0.00 20 1007.6
20260504180044 22 280 20.9 45.1 0.00 0.00 0.00 19 1007.7
20260504174542 22 261 27.4 40.2 0.00 0.00 0.00 21 1007.9
20260504173045 22 281 25.7 40.2 0.00 0.00 0.00 22 1008.1
20260504171545 21 276 25.7 41.8 0.00 0.00 0.00 22 1008.2
20260504081544 6 283 3.2 6.4 0.00 0.00 0.00 53 1010.1